Regional Weather Roundup
Issued by NWS

Home | Current Version | Previous Version | Graphics & Text | Print | Product List | Glossary On
Versions: 1 2 3 4 5 6 7 8 9 10 11 12 13 14 15 16 17 18 19 20 21 22 23 24 25 26 27 28 29 30 31 32 33 34 35 36 37 38 39 40 41 42 43 44 45 46 47 48 49 50
000
ASUS43 KOAX 200810
RWRNE

WEATHER ROUNDUP FOR NEBRASKA
NATIONAL WEATHER SERVICE OMAHA NE
300 AM CDT SUN AUG 20 2017

NOTES: SATELLITE DATA IS BEING USED TO AUGMENT CLOUD COVER ABOVE
       12000 FEET.
       "FAIR" INDICATES FEW OR NO CLOUDS BELOW 12,000 FEET WITH NO
       SIGNIFICANT WEATHER AND/OR OBSTRUCTIONS TO VISIBILITY.


NEZ001>004-019>022-054>056-200900-
NEBRASKA PANHANDLE

CITY           SKY/WX    TMP DP  RH WIND       PRES   REMARKS
SCOTTSBLUFF    CLEAR     58  48  69 NE6       29.95S
ALLIANCE       CLEAR     60  49  66 N9        29.95S
CHADRON        CLEAR     57  45  64 CALM      29.96R
GORDON         FAIR      56  48  74 W6        29.93S
KIMBALL        CLEAR     57  48  71 W7        30.02S
SIDNEY         CLEAR     58  52  80 E3        29.99S
$$

NEZ057>060-069>072-079>082-200900-
SOUTHWEST NEBRASKA

CITY           SKY/WX    TMP DP  RH WIND       PRES   REMARKS
NORTH PLATTE   CLEAR     67  63  87 E9        29.86F
IMPERIAL       PTCLDY    71  56  58 NW9       29.88F
LEXINGTON      CLEAR     71  63  76 E13       29.88S
MCCOOK         CLEAR     71  62  73 SW9       29.86S
OGALLALA       CLEAR     62  59  90 CALM      29.89S
$$

NEZ005>010-023>029-035>040-094-200900-
NORTH CENTRAL NEBRASKA

CITY           SKY/WX    TMP DP  RH WIND       PRES   REMARKS
VALENTINE      CLEAR     65  57  75 SW5       29.86S
AINSWORTH      CLEAR     65  62  87 S6        29.87S
BROKEN BOW     CLEAR     69  64  84 S7        29.87F
O`NEILL        CLEAR     63  60  92 SE5       29.85S
ORD            CLEAR     64  57  78 CALM      29.83F
THEDFORD       CLEAR     62  58  86 CALM      29.89F
$$

NEZ041-046>049-061>064-073>077-083>087-200900-
SOUTH CENTRAL NEBRASKA

CITY           SKY/WX    TMP DP  RH WIND       PRES   REMARKS
GRAND ISLAND   CLOUDY    69  60  73 S8        29.88F
AURORA         CLOUDY    69  60  73 SE10      29.89F
HASTINGS       PTCLDY    65  61  87 SE10      29.91F
HEBRON         LGT RAIN  68  65  90 E10       29.96S
HOLDREGE       CLEAR     66  62  85 E14       29.89S
KEARNEY        CLEAR     64  62  93 SE10      29.89F
YORK           CLOUDY    66  63  88 SE10      29.91F
$$

NEZ011>018-030>034-042>045-200900-
NORTHEAST NEBRASKA

CITY           SKY/WX    TMP DP  RH WIND       PRES   REMARKS
NORFOLK        CLOUDY    71  57  61 S7        29.84R
ALBION         CLOUDY    68  60  75 S5        29.86R
BLAIR          TSTM      68  65  92 SE7       29.97S
COLUMBUS       LGT RAIN  75  55  50 NE10G23   29.84F
FREMONT        TSTM      70  65  85 SE10      29.91F
TEKAMAH        LGT RAIN  68  64  87 SE15      29.91F
WAYNE          CLOUDY    71  60  68 SE9       29.88R
$$

NEZ050>053-065>068-078-088>093-200900-
SOUTHEAST NEBRASKA

CITY           SKY/WX    TMP DP  RH WIND       PRES   REMARKS
LINCOLN        TSTM      68  64  87 SE16      29.94F
OMAHA EPPLEY   TSTM      70  65  84 SW5       29.98R
BEATRICE       CLOUDY    66  64  94 NE15G29   30.00F
FALLS CITY     HVY RAIN  69  65  86 N20G41    29.96R FOG
NEBRASKA CITY  TSTM      66  66 100 NW14G22   30.01R
PLATTSMOUTH    TSTM      68  63  84 SW5       30.00R
$$

NEZ044-045-051>053-067-200900-
OMAHA AREA

CITY           SKY/WX    TMP DP  RH WIND       PRES   REMARKS
OMAHA EPPLEY   TSTM      70  65  84 SW5       29.98R
BLAIR          TSTM      68  65  92 SE7       29.97S
FREMONT        TSTM      70  65  85 SE10      29.91F
MILLARD        TSTM      72  69  90 CALM      29.97F
OFFUTT AFB     TSTM      72  69  92 NW7       29.98R
PLATTSMOUTH    TSTM      68  63  84 SW5       30.00R
WAHOO          LGT RAIN  67  64  90 E16       29.87F
$$




USA.gov is the U.S. government's official web portal to all federal, state and local government web resources and services.